默认 日期 大小 文件数 浏览量 最新下载 xml
pack 1磁力链接相关资源由用户搜索指令自动获取,结果来源于网络,本站不存储任何资料,亦不承担任何责任,请于24小时内删除,搜索到15347个磁力,显示前4000条数据,用时82ms。
    ... part01.rar": 209715200, "Collection Pack 1 Of 8 - Malena Morgan. ... part02.rar": 209715200, "Collection Pack 1 Of 8 - Malena Morgan. ... part03.rar": 209715200, "Collection Pack 1 Of 8 - Malena Morgan. ... part04.rar": 209715200, "Collection Pack 1 Of 8 - Malena Morgan. ...
创建时间: 2022-12-18 21:11:39 大小:1.57 GB 文件数量:9 热度:6 最近下载:2025-01-25 14:35:01
    ... Lynn.avi": 253768658, "sg: POV 1 - Sc3 - Melanie Scott.avi": ... 298007708, "sg: POV 1 - Sc2 - Carmen McCarthy.avi": ... 356262560, "sg: POV 1 - Sc5 - Marissa Mendoza.avi": ... 267469160, "sg: POV 1 - Sc4 - Christina Alexis.avi": ...
创建时间: 2022-12-18 19:44:06 大小:14.2 GB 文件数量:49 热度:13 最近下载:2025-08-03 10:17:07
    {"Adobe Photoshop CS6 13.1.2 Extended Multilanguage - April Pack.zip": 1638464203}
创建时间: 2022-12-18 16:17:26 大小:1.53 GB 文件数量:1 热度:2 最近下载:2025-01-11 04:01:39
    {"7601.16562.100603-1800_Update_Sp_Wave0-B1SP1.0_DVD.iso": 1315076096, "7601.16562.100603-1800_Update_Sp_Wave0-B1SP1.0_DVD.iso.nfo": 354, "MICROSOFT.WIN.7.AND.SRV.2008.R2.SERVICE.PACK-1.BETA-1.WAVE0.DVD-MSFT.NFO": 354}
创建时间: 2022-12-18 06:19:56 大小:1.22 GB 文件数量:3 热度:4 最近下载:2025-02-21 00:34:02
    ... .1080p.HMAX.WEB-DL.DD5.1.H.264-PSiG.mkv": 3829592138 ... 1080p.HMAX.WEB-DL.DD5.1.H.264-PSiG.mkv": 3756791627 ... 1080p.HMAX.WEB-DL.DD5.1.H.264-PSiG.mkv": 3419788274 ... 1080p.HMAX.WEB-DL.DD5.1.H.264-PSiG.mkv": 3520825306 ... 1080p.HMAX.WEB-DL.DD5.1.H.264-PSiG.mkv": 3572889611 ...
创建时间: 2022-12-17 23:54:57 大小:26.49 GB 文件数量:9 热度:11 最近下载:2025-08-03 23:41:04
    {".____padding_file": {"0": 851968, "1": 4173824, "2": 4193503}, "Liberal Education Self-Study Pack (v1.1).iso": 31036997632, "liberal-education-self-study-pack-v-1.1_meta.xml": 801, "liberal-education-self-study-pack-v-1.1_meta.sqlite": 20480}
创建时间: 2022-12-17 06:03:28 大小:28.91 GB 文件数量:6 热度:4 最近下载:2025-05-17 01:51:02
    ... ": 142591, "[JP-CEN][AV] TONSIAMBIT PACK 149.torrent": 104624}
创建时间: 2022-12-16 18:26:41 大小:20.01 GB 文件数量:44 热度:6 最近下载:2025-03-25 00:47:02
    ... ": 604328368, "hostel2LKRG.avi": 983666074, "Hostel 1 subs.srt": 51091, "Hostel 2 ...
创建时间: 2022-12-16 06:59:45 大小:6.55 GB 文件数量:31 热度:3 最近下载:2025-02-21 22:14:05
    {"temp.rar": 964009986}
创建时间: 2022-12-16 06:45:01 大小:919.35 MB 文件数量:1 热度:2 最近下载:2025-02-25 18:39:01
    {"Picture - 1.jpg": 87247, "Picture - 2.jpg": ...
创建时间: 2022-12-16 06:28:40 大小:10.75 MB 文件数量:91 热度:2 最近下载:2025-01-05 07:47:03
    ... 2-DTS-HD-HR-7.1---KRaLiMaRKo.cz.mkv": 20374113618, ... AVC-DTS-HD-MA-7.1---KRaLiMaRKo.cz.mkv": 16501976737, ... AVC-DTS-HD-MA-7.1---KRaLiMaRKo.cz.mkv": 16304180249, ... 2-DTS-HD-HR-6.1---KRaLiMaRKo.cz.mkv": 18901401516, ... 2-DTS-HD-HR-6.1---KRaLiMaRKo.cz.mkv": 17078286970, ...
创建时间: 2022-12-16 05:14:50 大小:121.41 GB 文件数量:7 热度:10 最近下载:2025-09-20 10:21:07
    ... 1080p.AMZN.WEB-DL.DDP5.1.H.264-PSiG.mkv": 3894901188 ... 1080p.AMZN.WEB-DL.DDP5.1.H.264-PSiG.mkv": 4017577745 ... 1080p.AMZN.WEB-DL.DDP5.1.H.264-PSiG.mkv": 4161469357 ... 1080p.AMZN.WEB-DL.DDP5.1.H.264-PSiG.mkv": 3658596551 ... 1080p.AMZN.WEB-DL.DDP5.1.H.264-PSiG.mkv": ...
创建时间: 2022-12-14 23:52:57 大小:21.54 GB 文件数量:8 热度:6 最近下载:2025-01-06 04:14:02
    {"Read Me.txt": 267, "Picture - 1.jpg": 397279, "Picture - 2.jpg": ...
创建时间: 2022-12-14 22:13:15 大小:9.47 MB 文件数量:38 热度:2 最近下载:2025-03-01 20:11:02
    {"Picture - 1.jpg": 39101, "Picture - 2.jpg": ...
创建时间: 2022-12-14 20:21:20 大小:1.17 MB 文件数量:34 热度:2 最近下载:2025-01-03 21:45:08
    {"Desc.txt": 2159, "Producer Pack - Ray Diaz Latin House Style Vol.1 (Multiforma.zip.exe": 548684018}
创建时间: 2022-12-14 20:18:55 大小:523.27 MB 文件数量:2 热度:6 最近下载:2025-08-16 05:09:01
    {"Colouring Book - Heaven Above - 2021.pdf": 94816198, "Colouring Book - Positive Vibes - 2021.pdf": 90946679, "Colouring Book - Therapy Art Book - 2021.pdf": 96149429, "Colouring Book - Geometric Patterns - 2022.pdf": 84043081, "Colouring Book - Mandalas ...
创建时间: 2022-12-13 21:38:20 大小:582.27 MB 文件数量:6 热度:2 最近下载:2025-01-04 17:31:17
    ... (October 1, 1999)(5.99).rar": 1671834639, "Gobliiins pack (July ... January 1, 1994)(5.99).rar": 128887388, "Red Baron Pack (October ... "The Incredible Machine Mega Pack (September 14, 2001)(9. ... , "Total Annihilation - Commander Pack (October 30, 1997)(5.99 ...
创建时间: 2022-12-11 17:03:40 大小:130.43 GB 文件数量:151 热度:9 最近下载:2025-03-25 15:59:02
    {"Crooner-1932-TCM Rip.avi": 829310876, "Scarface-1932-Web Rip.avi": 1451377192, "Massacre -1934-DVD Rip.avi": 1047264082, "Side Streets-1934-TCM Rip.avi": 1580552750, "Midnight Alibi-1934-DVD Rip.avi": 1175958950, "Heat Lightning -1934-DVD Rip.avi": ...
创建时间: 2022-12-11 09:58:32 大小:11 GB 文件数量:10 热度:8 最近下载:2025-02-21 22:18:01
    {"loops": {"bass_loops": {"DS_RS_140_bass_loop_donker_Emin.wav": 1814504, "DS_RS_150_bass_loop_good_soup_F.wav": 423464, "DS_RS_150_bass_loop_pad_layer_E.wav": 1693484, "DS_RS_150_bass_loop_dump_on_em_F.wav": 846826, "DS_RS_150_bass_loop_fruit_bang_E.wav": ...
创建时间: 2022-12-10 21:38:37 大小:528.76 MB 文件数量:1023 热度:6 最近下载:2025-02-06 09:32:02
    {"K.Media.Player.rar": 19732661, "XviD-1.1.0 Codec.rar": 638281, "Vlc-0.8.5.&.Skins.rar": 12768958, "Windows Media Player 11.rar": 24081354, "K-Lite Codec Pack 2.71 Full.rar": 19240314, "DivX.Create.Bundle 6.4.0 [Final] Serial & Install.rar": 16265410}
创建时间: 2022-12-10 16:25:07 大小:88.43 MB 文件数量:6 热度:12 最近下载:2025-06-24 05:24:01